[[{"header":{"parameterUnit":"m.s-1","parameterCategory":1,"la1":30.2991,"la2":30.254,"lo1":-89.0895,"lo2":-89.0444,"dy":0.0017,"dx":0.0017,"nx":28,"ny":28,"refTime":"2025-11-25T03:00:00:Z","depth":0,"parameterNumber":2,"parameterNumberName":"U-component_of_WINDS"},"data":[0,0,0,0,0,0,0,0,0,0,0,0,0,0,0,0,0,0,0,0,0,0,0,0,0,0,0,0,0,0,0,0,0,0,0,0,0,0,0,0,0,0,0,0,0,0,0,0,0,0,0,0,0,0,0,0,0,0,2.045,2.045,0,2.0471,2.0471,2.0471,2.0451,2.045,2.045,2.0449,2.047,2.0471,2.0473,0,0,0,0,0,0,0,0,0,0,0,0,0,2.0393,2.0395,2.045,2.045,2.045,2.0471,2.0471,2.0471,2.0451,2.045,2.0449,2.0448,2.047,2.0471,2.0473,0,0,0,0,0,0,0,0,0,0,0,0,0,2.0417,2.0395,2.045,2.0443,2.0442,2.0471,2.0471,2.0471,2.0451,2.045,2.0449,2.0448,2.0469,2.0471,2.0473,2.0509,0,0,2.0479,2.048,0,0,0,0,0,0,0,0,2.0415,2.0419,2.0444,2.0443,2.0443,2.0457,2.0459,2.0484,2.0452,2.0448,2.0449,2.0447,2.0467,2.0469,2.0475,2.051,2.0511,2.0479,2.048,2.0481,2.0482,0,0,0,0,0,0,0,2.0414,2.0418,2.0458,2.0444,2.0444,2.0439,2.0441,2.0464,2.0464,2.0448,2.0447,2.045,2.0466,2.0473,2.0476,2.0511,2.0479,2.0481,2.0482,2.0483,2.0579,2.058,0,0,0,0,0,0,2.0413,2.0416,2.0457,2.0459,2.0426,2.0441,2.0443,2.0454,2.0464,2.0464,2.0451,2.0449,2.0471,2.0473,2.0476,2.052,2.0481,2.0483,2.0484,2.0577,2.0579,2.058,0,0,0,0,0,0,2.0412,2.0417,2.0457,2.0437,2.0442,2.0443,2.0455,2.0455,2.0462,2.0465,2.0465,2.0458,2.047,2.0474,2.0501,2.0521,2.0484,2.0486,2.0576,2.0578,2.058,2.0608,0,0,0,0,0,0,2.041,2.0416,2.043,2.0438,2.0443,2.0481,2.0456,2.0456,2.0465,2.0463,2.0472,2.0472,2.0469,2.0499,2.0503,2.0523,2.0487,2.0574,2.0577,2.0579,2.0605,2.061,2.0615,0,0,0,0,0,2.0408,2.0436,2.043,2.0436,2.046,2.0482,2.0485,2.0481,2.0467,2.0481,2.0483,2.0472,2.0518,2.0502,2.0507,2.0527,2.0573,2.0576,2.0579,2.0603,2.0609,2.0615,0,0,0,0,0,0,2.043,2.0437,2.0431,2.0462,2.0472,2.0479,2.0496,2.0488,2.0501,2.0499,2.0493,2.0495,2.0525,2.0529,2.0511,2.0563,2.0543,2.0547,2.0559,2.0566,2.0571,2.0569,2.0489,0,0,0,0,0,2.0439,2.0456,2.0462,2.0489,2.0494,2.0494,2.0504,2.05,2.051,2.0513,2.0518,2.0528,2.0544,2.0555,2.0571,2.0606,2.0608,2.0622,2.0627,2.0631,2.0635,2.0655,2.0662,2.059,2.059,2.059,0,0,2.0456,2.0463,2.0474,2.0494,2.05,2.0519,2.0498,2.0518,2.0532,2.0516,2.0543,2.0547,2.0558,2.059,2.0604,2.0594,2.0655,2.0635,2.0639,2.064,2.0659,2.0666,2.0672,2.0592,2.0592,2.0592,0,0,2.0498,2.0504,2.0528,2.0536,2.0547,2.0548,2.0553,2.0562,2.0564,2.0591,2.058,2.0597,2.0625,2.0634,2.0642,2.0689,2.068,2.0695,2.072,2.074,2.0746,2.0751,2.0768,2.0774,2.0698,2.0698,2.0698,0,2.0519,2.0546,2.0542,2.0563,2.0573,2.056,2.0585,2.0593,2.0608,2.0615,2.0604,2.0641,2.0647,2.0681,2.0693,2.07,2.0707,2.0693,2.0745,2.075,2.0755,2.0771,2.0778,2.07,2.07,2.07,2.0699,0,2.0571,2.0591,2.0609,2.0625,2.0636,2.0659,2.0659,2.0671,2.0667,2.0669,2.0697,2.0705,2.0722,2.073,2.0725,2.0764,2.0758,2.0746,2.0725,2.0763,2.0779,2.0785,2.0702,2.0702,2.0701,2.0701,0,0,2.0626,2.0641,2.0647,2.0655,2.0667,2.0682,2.0705,2.0723,2.0734,2.0745,2.0765,2.079,2.078,2.0789,2.0786,2.0803,2.0841,2.079,2.079,2.0799,2.0885,2.0894,2.0901,2.0836,2.0837,2.0838,2.0885,0,2.0669,2.0708,2.0706,2.0744,2.0762,2.0752,2.0772,2.0782,2.0785,2.0801,2.0804,2.0822,2.0807,2.0813,2.0829,2.0833,2.0859,2.083,2.0854,2.0855,2.0852,2.0909,2.0918,2.0962,2.0891,2.0892,2.0892,0,2.0723,2.0737,2.0777,2.0788,2.0795,2.0813,2.083,2.0846,2.0857,2.0858,2.087,2.0864,2.0888,2.0868,2.0901,2.0882,2.0892,2.0896,2.0897,2.0899,2.0876,2.0913,2.0976,2.0983,2.0902,2.0901,2.09,0,2.0759,2.0789,2.0816,2.0823,2.0836,2.085,2.0856,2.0866,2.0877,2.0892,2.0899,2.0917,2.0926,2.094,2.094,2.0925,2.0974,2.0953,2.0976,2.0976,2.0986,2.0985,2.1052,2.0993,2.0993,2.0993,2.0993,0,2.0807,2.0832,2.0833,2.085,2.0878,2.0876,2.0903,2.0908,2.0918,2.0936,2.0929,2.0946,2.0945,2.0962,2.0962,2.0991,2.0995,2.0997,2.0997,2.0998,2.0997,2.1004,2.1001,2.0994,2.0994,2.0994,2.0993,0,2.0852,2.0854,2.0883,2.0894,2.0897,2.0918,2.0927,2.0943,2.0946,2.097,2.0975,2.0979,2.1,2.1001,2.1025,2.1025,2.106,2.1056,2.1056,2.1055,2.1078,2.1076,2.1151,2.1161,2.1095,2.1096,2.1096,0,2.0882,2.0901,2.0914,2.0926,2.0933,2.0952,2.0964,2.0963,2.0975,2.0991,2.1006,2.1026,2.1042,2.1076,2.1082,2.11,2.1097,2.1122,2.11,2.1101,2.1098,2.1097,2.1099,2.1126,2.1127,2.1127,2.1128,0,2.0935,2.0936,2.0953,2.0971,2.0985,2.0999,2.1012,2.1022,2.1023,2.1037,2.1059,2.1072,2.1097,2.1117,2.1136,2.1143,2.1136,2.1135,2.1141,2.1142,2.1142,2.1143,2.1068,2.1133,2.1133,2.1132,2.1132,2.1132,2.0974,2.0991,2.1003,2.1022,2.1032,2.1045,2.1062,2.1067,2.1085,2.1105,2.1104,2.1128,2.1141,2.1165,2.1174,2.1193,2.1185,2.1193,2.1196,2.1198,2.1201,2.1139,2.1196,2.1196,2.1196,2.1196,2.1196,0,2.1027,2.1035,2.1053,2.1072,2.1088,2.108,2.1095,2.1109,2.113,2.1143,2.1159,2.1185,2.1205,2.1213,2.1233,2.1247,2.1244,2.1252,2.1251,2.1253,2.1207,2.1199,2.1254,2.1254,2.1254,2.1254,2.1254,2.1254,2.1056,2.1085,2.1087,2.1121,2.1129,2.1152,2.1161,2.1173,2.1184,2.1212,2.1229,2.1235,2.1246,2.1267,2.1286,2.1287,2.1295,2.1305,2.1305,2.1262,2.1256,2.125,2.1243,2.1306,2.1306,2.135,2.135,2.135]},{"header":{"parameterUnit":"m.s-1","parameterCategory":1,"la1":30.2991,"la2":30.254,"lo1":-89.0895,"lo2":-89.0444,"dy":0.0017,"dx":0.0017,"nx":28,"ny":28,"refTime":"2025-11-25T03:00:00:Z","depth":0,"parameterNumber":3,"parameterNumberName":"V-component_of_WINDS"},"data":[0,0,0,0,0,0,0,0,0,0,0,0,0,0,0,0,0,0,0,0,0,0,0,0,0,0,0,0,0,0,0,0,0,0,0,0,0,0,0,0,0,0,0,0,0,0,0,0,0,0,0,0,0,0,0,0,0,0,-6.645,-6.6451,0,-6.6564,-6.6565,-6.6567,-6.6524,-6.6521,-6.6519,-6.6516,-6.6627,-6.6632,-6.6638,0,0,0,0,0,0,0,0,0,0,0,0,0,-6.619,-6.6195,-6.645,-6.6451,-6.6453,-6.6564,-6.6565,-6.6567,-6.6524,-6.6521,-6.6518,-6.6515,-6.6625,-6.6632,-6.6638,0,0,0,0,0,0,0,0,0,0,0,0,0,-6.6303,-6.6196,-6.645,-6.6445,-6.6446,-6.6563,-6.6565,-6.6567,-6.6525,-6.6521,-6.6517,-6.6513,-6.6623,-6.6631,-6.6639,-6.6766,0,0,-6.6664,-6.6667,0,0,0,0,0,0,0,0,-6.6297,-6.6313,-6.6444,-6.6446,-6.6447,-6.6526,-6.6514,-6.6634,-6.6526,-6.6495,-6.6516,-6.6512,-6.6596,-6.6606,-6.6636,-6.6771,-6.6776,-6.6664,-6.6669,-6.6673,-6.6675,0,0,0,0,0,0,0,-6.6289,-6.6307,-6.6495,-6.6446,-6.6448,-6.6435,-6.6447,-6.6537,-6.6565,-6.6497,-6.6494,-6.6509,-6.6596,-6.6628,-6.6638,-6.6778,-6.6664,-6.6671,-6.6676,-6.6679,-6.7023,-6.7027,0,0,0,0,0,0,-6.6281,-6.6301,-6.6491,-6.6498,-6.6361,-6.6443,-6.6456,-6.6504,-6.6565,-6.657,-6.6512,-6.6506,-6.6616,-6.6629,-6.6642,-6.6795,-6.6673,-6.668,-6.6685,-6.7019,-6.7024,-6.7029,0,0,0,0,0,0,-6.6276,-6.6299,-6.6487,-6.6399,-6.6422,-6.6452,-6.6506,-6.6508,-6.6541,-6.6576,-6.658,-6.654,-6.6614,-6.6631,-6.6736,-6.6798,-6.6684,-6.6691,-6.7014,-6.702,-6.7026,-6.7102,0,0,0,0,0,0,-6.6269,-6.6297,-6.6347,-6.6401,-6.6427,-6.6581,-6.651,-6.6513,-6.6555,-6.6549,-6.6603,-6.6608,-6.6612,-6.6724,-6.6744,-6.6807,-6.6697,-6.7008,-6.7017,-6.7024,-6.7094,-6.711,-6.7124,0,0,0,0,0,-6.626,-6.6362,-6.635,-6.6373,-6.649,-6.6584,-6.6599,-6.6603,-6.6561,-6.661,-6.6633,-6.6607,-6.6788,-6.6735,-6.6757,-6.6824,-6.7004,-6.7014,-6.7024,-6.7087,-6.7107,-6.7123,0,0,0,0,0,0,-6.6313,-6.6369,-6.6356,-6.648,-6.6528,-6.6577,-6.664,-6.6624,-6.6683,-6.6675,-6.6675,-6.6688,-6.6796,-6.682,-6.6761,-6.695,-6.689,-6.6904,-6.693,-6.6949,-6.6964,-6.6955,-6.6704,0,0,0,0,0,-6.634,-6.6413,-6.6458,-6.6562,-6.6587,-6.661,-6.6651,-6.665,-6.6699,-6.6718,-6.6748,-6.6796,-6.6863,-6.6907,-6.6972,-6.7097,-6.7108,-6.7153,-6.7168,-6.718,-6.7193,-6.726,-6.7281,-6.706,-6.706,-6.706,0,0,-6.6394,-6.6434,-6.648,-6.6574,-6.6611,-6.6686,-6.6627,-6.6708,-6.6763,-6.673,-6.6832,-6.6856,-6.6908,-6.7024,-6.7077,-6.7048,-6.7256,-6.7193,-6.7202,-6.7208,-6.7272,-6.7293,-6.7312,-6.7067,-6.7066,-6.7065,0,0,-6.6532,-6.6571,-6.6662,-6.6701,-6.6759,-6.6773,-6.6795,-6.6848,-6.6863,-6.6966,-6.6943,-6.7007,-6.7123,-6.7162,-6.7196,-6.735,-6.7328,-6.7371,-6.7448,-6.7514,-6.7532,-6.7547,-6.7601,-6.7621,-6.7383,-6.7383,-6.7383,0,-6.6593,-6.6706,-6.671,-6.6794,-6.6836,-6.6812,-6.6903,-6.694,-6.7015,-6.7044,-6.7011,-6.7157,-6.719,-6.7315,-6.7353,-6.7382,-6.7406,-6.7364,-6.7529,-6.7545,-6.7559,-6.761,-6.7631,-6.7388,-6.7387,-6.7387,-6.7386,0,-6.6777,-6.6856,-6.6922,-6.6998,-6.7047,-6.7134,-6.715,-6.7199,-6.7194,-6.7211,-6.7315,-6.7355,-6.7427,-6.7456,-6.7451,-6.758,-6.7561,-6.7529,-6.7468,-6.7585,-6.7633,-6.7653,-6.7395,-6.7393,-6.7391,-6.739,0,0,-6.6951,-6.7029,-6.7053,-6.7087,-6.715,-6.721,-6.7295,-6.7368,-6.7409,-6.7462,-6.7533,-6.7632,-6.7603,-6.7643,-6.7642,-6.77,-6.7818,-6.766,-6.7662,-6.7688,-6.7962,-6.7985,-6.8008,-6.7804,-6.7808,-6.7811,-6.7957,0,-6.7093,-6.7246,-6.7253,-6.7391,-6.7463,-6.7442,-6.7516,-6.7562,-6.758,-6.7643,-6.7662,-6.7733,-6.769,-6.7713,-6.777,-6.7792,-6.7873,-6.7782,-6.7869,-6.7872,-6.7856,-6.8034,-6.8059,-6.8195,-6.7976,-6.798,-6.7982,0,-6.728,-6.7341,-6.7487,-6.754,-6.757,-6.7637,-6.7704,-6.7765,-6.7815,-6.7825,-6.787,-6.786,-6.7946,-6.7884,-6.8001,-6.7939,-6.7975,-6.7991,-6.7996,-6.8004,-6.7933,-6.8045,-6.8238,-6.8258,-6.8012,-6.8009,-6.8007,0,-6.7391,-6.751,-6.7613,-6.7642,-6.7706,-6.7754,-6.7783,-6.783,-6.7873,-6.793,-6.7958,-6.8024,-6.8061,-6.8111,-6.8119,-6.8073,-6.8237,-6.8175,-6.8246,-6.8246,-6.8281,-6.8278,-6.8481,-6.8305,-6.8305,-6.8304,-6.8304,0,-6.755,-6.7639,-6.7664,-6.7727,-6.7827,-6.7833,-6.7931,-6.7956,-6.7998,-6.8064,-6.8049,-6.8111,-6.8119,-6.8182,-6.8189,-6.8285,-6.8301,-6.831,-6.831,-6.8311,-6.831,-6.8334,-6.8324,-6.831,-6.8309,-6.8308,-6.8307,0,-6.7691,-6.7711,-6.7821,-6.7874,-6.7889,-6.796,-6.8004,-6.8063,-6.8081,-6.8165,-6.8185,-6.8211,-6.8285,-6.8299,-6.8386,-6.839,-6.8505,-6.8496,-6.8488,-6.8487,-6.8557,-6.855,-6.8782,-6.8812,-6.8617,-6.8619,-6.862,0,-6.779,-6.7859,-6.792,-6.7964,-6.7996,-6.8067,-6.8112,-6.812,-6.8167,-6.823,-6.8282,-6.8355,-6.8414,-6.8533,-6.8558,-6.8625,-6.8617,-6.8694,-6.8627,-6.8625,-6.8617,-6.8613,-6.8619,-6.8706,-6.8708,-6.871,-6.8711,0,-6.7964,-6.7971,-6.8037,-6.8107,-6.8161,-6.8215,-6.8267,-6.8304,-6.8319,-6.8372,-6.8449,-6.8495,-6.8584,-6.8657,-6.8723,-6.875,-6.8733,-6.8733,-6.8752,-6.8753,-6.8746,-6.875,-6.8523,-6.8727,-6.8725,-6.8724,-6.8723,-6.8723,-6.8087,-6.8147,-6.82,-6.8273,-6.8314,-6.8363,-6.8422,-6.8447,-6.8512,-6.8588,-6.8588,-6.8672,-6.872,-6.8808,-6.8839,-6.8904,-6.8879,-6.8908,-6.8915,-6.8922,-6.8928,-6.8737,-6.8916,-6.8915,-6.8915,-6.8915,-6.8914,0,-6.8259,-6.8293,-6.8361,-6.8435,-6.8493,-6.8474,-6.8531,-6.858,-6.8655,-6.8702,-6.8761,-6.8849,-6.8919,-6.8951,-6.902,-6.9065,-6.9059,-6.9083,-6.9079,-6.9085,-6.8946,-6.8922,-6.9086,-6.9086,-6.9086,-6.9086,-6.9086,-6.9086,-6.8356,-6.8458,-6.8471,-6.8591,-6.8623,-6.8707,-6.8741,-6.8785,-6.8824,-6.8923,-6.8983,-6.9004,-6.9045,-6.9116,-6.9179,-6.9187,-6.9212,-6.9239,-6.9243,-6.9113,-6.9095,-6.9078,-6.9056,-6.9245,-6.9245,-6.9376,-6.9378,-6.9378]}]]